Central Park, NY

3:31 PM EST on November 18, 2017 (GMT -0500)
Central Park

Weather History for KNYC - February, 2012

Change the Weather History Date:

Tuesday, February 7, 2012

  Actual Average Record
Temperature  
Mean Temperature 44 °F 34 °F  
Max Temperature 49 °F 40 °F 54 °F (1938)
Min Temperature 38 °F 28 °F 1 °F (1910)
Degree Days  
Heating Degree Days 21 31  
Month to date heating degree days 157 220  
Since 1 July heating degree days 2335 2909  
Cooling Degree Days 0 0  
Month to date cooling degree days 0 0  
Year to date cooling degree days 0 0  
Moisture  
Dew Point 26 °F    
Average Humidity 47    
Maximum Humidity 55    
Minimum Humidity 39    
Precipitation  
Precipitation 0.00 in 0.11 in 2.96 in (1941)
Month to date precipitation 0.03 0.76  
Year to date precipitation 3.26 4.41  
Snow  
Snow 0.00 in 0.30 in 12.50 in (1967)
Month to date snowfall 0.0 2.3  
Since 1 July snowfall 7.2 14.4  
Snow Depth 0.00 in    
Sea Level Pressure  
Sea Level Pressure 30.08 in    
Wind  
Wind Speed 6 mph (West)    
Max Wind Speed 16 mph    
Max Gust Speed 22 mph    
Visibility 10 miles    
Events      
T = Trace of Precipitation, MM = Missing Value Source: NWS Daily Summary

Daily Weather History Graph

Daily Weather History Graph

Search for Another Location

Airport or City:

Trip Planner

Search our weather history database for the weather conditions in past years. The results will help you decide how hot, cold, wet, or windy it might be!

Date:

Astronomy

Feb. 07, 2012 Rise Set
Actual Time 7:00 AM EST 5:20 PM EST
Civil Twilight 6:31 AM EST 5:48 PM EST
Nautical Twilight 5:59 AM EST 6:21 PM EST
Astronomical Twilight 5:27 AM EST 6:53 PM EST
Moon 5:28 PM EST (2/7) 6:27 AM EST (2/7)
Length of Visible Light 11h 17m
Length of Day
10h 20m
Full, 100% of the Moon is Illuminated
Feb 7
Full
Feb 7
Full
Feb 14
Last Quarter
Feb 21
New
Feb 29
First Quarter

Hourly Weather History & Observations

Time (EST) Temp. Windchill Dew Point Humidity Pressure Visibility Wind Dir Wind Speed Gust Speed Precip Events Conditions
12:51 AM 42.1 °F 36.6 °F 25.0 °F 51% 29.97 in 10.0 mi WSW 9.2 mph 17.3 mph N/A   Clear
1:51 AM 41.0 °F 38.0 °F 25.0 °F 53% 29.96 in 10.0 mi Variable 4.6 mph - N/A   Clear
2:51 AM 41.0 °F 37.1 °F 24.1 °F 51% 29.96 in 10.0 mi West 5.8 mph - N/A   Clear
3:51 AM 41.0 °F 37.1 °F 24.1 °F 51% 29.96 in 10.0 mi Variable 5.8 mph - N/A   Clear
4:51 AM 39.9 °F 37.8 °F 25.0 °F 55% 29.99 in 10.0 mi Variable 3.5 mph - N/A   Clear
5:51 AM 39.9 °F - 24.1 °F 53% 29.99 in 10.0 mi Calm Calm - N/A   Clear
6:51 AM 41.0 °F 35.8 °F 25.0 °F 53% 30.02 in 10.0 mi West 8.1 mph - N/A   Clear
7:51 AM 41.0 °F 35.8 °F 26.1 °F 55% 30.04 in 10.0 mi West 8.1 mph - N/A   Clear
8:51 AM 42.1 °F 38.4 °F 27.0 °F 55% 30.05 in 10.0 mi West 5.8 mph - N/A   Clear
9:51 AM 44.1 °F 39.5 °F 27.0 °F 51% 30.07 in 10.0 mi WNW 8.1 mph - N/A   Clear
10:51 AM 46.0 °F 43.1 °F 27.0 °F 47% 30.08 in 10.0 mi Variable 5.8 mph - N/A   Clear
11:51 AM 48.0 °F - 25.0 °F 41% 30.08 in 10.0 mi Variable 5.8 mph - N/A   Clear
12:51 PM 46.9 °F - 25.0 °F 42% 30.06 in 10.0 mi Variable 6.9 mph - N/A   Clear
1:51 PM 46.9 °F - 26.1 °F 44% 30.06 in 10.0 mi Variable 6.9 mph - N/A   Clear
2:51 PM 45.0 °F 39.3 °F 27.0 °F 49% 30.09 in 10.0 mi WNW 11.5 mph 19.6 mph N/A   Partly Cloudy
3:51 PM 45.0 °F 41.8 °F 26.1 °F 48% 30.10 in 10.0 mi Variable 5.8 mph 17.3 mph N/A   Clear
4:51 PM 45.0 °F 41.2 °F 26.1 °F 48% 30.12 in 10.0 mi Variable 6.9 mph - N/A   Clear
5:51 PM 44.1 °F 39.0 °F 26.1 °F 49% 30.14 in 10.0 mi West 9.2 mph - N/A   Overcast
6:51 PM 43.0 °F 38.8 °F 26.1 °F 51% 30.17 in 10.0 mi Variable 6.9 mph - N/A   Mostly Cloudy
7:51 PM 43.0 °F 37.2 °F 27.0 °F 53% 30.18 in 10.0 mi WNW 10.4 mph 16.1 mph N/A   Clear
8:51 PM 42.1 °F 39.2 °F 27.0 °F 55% 30.20 in 10.0 mi Variable 4.6 mph - N/A   Mostly Cloudy
9:51 PM 41.0 °F - 27.0 °F 57% 30.22 in 10.0 mi Calm Calm - N/A   Clear
10:51 PM 39.9 °F 35.1 °F 25.0 °F 55% 30.22 in 10.0 mi Variable 6.9 mph - N/A   Clear
11:51 PM 37.9 °F 33.5 °F 21.9 °F 53% 30.24 in 10.0 mi Variable 5.8 mph - N/A   Clear